#timestamp,LO_Frequency,Hit,StdDev 
1615327215.3,286047000.5,N
1615327235.1,286046999.7,N
1615327255.9,286047001.8,N
1615327275.7,286047006.4,N
1615327295.5,286047009.6,N
1615327315.4,286047015.7,N
1615327335.2,286047017.1,N
1615327355.0,286047016.9,N
1615327356.0,286047016.9,N
1615327375.8,286047014.3,N
1615327395.6,286047014.8,N
1615327415.5,286047012.8,N
1615327435.3,286047015.2,N
1615327455.1,286047015.7,N
1615327475.9,286047017.5,N
1615327495.7,286047022.4,N
1615327515.5,286047029.1,N
1615327535.4,286047033.9,Y
1615327555.2,286047029.0,P
1615327575.1,286047030.1,N
1615327576.0,286047030.1,N
1615327595.8,286047031.7,N
1615327615.6,286047032.5,Y
1615327635.5,286047010.7,P
1615327655.3,286047013.4,N
1615327675.2,286047019.9,P
1615327695.9,286047022.1,Y
1615327715.7,286047006.2,P
1615327735.6,286047010.0,N
1615327755.4,286047011.8,N
1615327775.2,286047006.1,N
1615327795.1,286047010.8,N
1615327796.0,286047010.8,N
1615327815.8,286047013.9,Y
1615327835.7,286047004.1,P
1615327855.5,286047005.8,N
1615327875.3,286047001.3,N
1615327895.2,286046998.8,N
1615327915.0,286046997.0,N
1615327915.9,286046997.0,N
1615327935.7,286046992.5,N
1615327955.6,286046990.4,N
1615327975.4,286046985.3,N
1615327995.3,286046982.4,N
1615328015.1,286046980.6,N
1615328016.0,286046980.6,N
1615328035.8,286046983.2,N
1615328055.7,286046979.7,N
1615328075.5,286046977.3,N
1615328095.3,286046976.9,N
1615328115.2,286046972.1,N
1615328135.0,286046967.4,N
1615328135.9,286046967.4,N
1615328155.8,286046959.8,Y
1615328175.6,286046977.1,P
1615328195.4,286046974.4,P
1615328215.3,286046977.1,P
1615328235.1,286046972.5,Y
1615328255.9,286046988.8,P
1615328275.7,286046985.4,N
1615328295.5,286046987.7,P
1615328315.4,286046985.5,Y
1615328335.2,286047000.4,P
1615328355.0,286046999.6,N
1615328355.9,286046999.6,N
1615328375.8,286047000.5,N
1615328395.6,286046997.3,N
1615328415.5,286046999.1,N
1615328435.3,286047002.7,N
1615328455.1,286046999.8,N
1615328475.9,286047003.1,N
1615328495.7,286046999.8,N
1615328515.5,286046996.6,N
1615328535.4,286046996.3,N
1615328555.2,286046995.7,N
1615328575.1,286046993.1,N
1615328576.0,286046993.1,N
1615328595.8,286046991.7,N
1615328615.6,286046993.4,N
1615328635.5,286046999.2,N
1615328655.3,286046997.0,N
1615328675.1,286046997.0,N
1615328695.9,286046998.6,N
1615328715.7,286047002.6,N
1615328735.6,286047004.0,N
1615328755.4,286047004.1,N
1615328775.2,286046998.3,N
1615328795.1,286046994.9,N
1615328796.0,286046994.9,N
1615328815.8,286046994.8,N
1615328835.6,286046992.3,N
1615328855.5,286046990.5,N
1615328875.3,286046993.1,N
1615328895.2,286046989.8,N
1615328915.9,286046985.6,Y
1615328935.7,286046987.0,P
1615328955.6,286046991.4,N
1615328975.4,286046988.6,N
1615328995.2,286046993.1,N
1615329015.1,286046991.4,N
1615329016.0,286046991.4,N
1615329035.8,286046990.3,Y
1615329055.7,286047002.1,P
1615329075.5,286047002.6,N
1615329095.3,286047000.8,N
1615329115.2,286046997.9,N
1615329135.0,286046997.5,N
1615329135.9,286046997.5,N
1615329155.8,286046994.5,N
1615329175.6,286046993.2,N
1615329195.4,286046992.5,N
1615329215.3,286046990.8,N
1615329235.1,286046991.8,N
1615329255.8,286046994.3,N
1615329275.7,286046994.7,N
1615329295.5,286046993.3,N
1615329315.4,286046996.1,N
1615329335.2,286046994.2,N
1615329355.0,286046993.5,N
1615329355.9,286046993.5,N
1615329375.8,286046996.9,N
1615329395.6,286046997.6,N
1615329415.4,286046999.5,N
1615329435.3,286047000.5,N
1615329455.1,286046999.2,N
1615329475.9,286046992.0,N
1615329495.7,286046990.3,N
1615329515.5,286046992.9,N
1615329535.4,286046994.5,N
1615329555.2,286046997.9,N
1615329575.0,286046994.1,N
1615329576.0,286046994.1,N
1615329595.8,286046992.3,N
1615329615.6,286046995.6,N
1615329635.5,286046998.3,N
1615329655.3,286046999.5,N
1615329675.1,286046994.2,N
1615329695.9,286046996.0,N
1615329715.7,286046990.2,Y
1615329735.6,286046993.9,P
1615329755.4,286046993.3,P
1615329775.2,286046995.0,P
1615329795.1,286046996.1,Y
1615329796.0,286046996.1,P
1615329815.8,286046999.9,N
1615329835.6,286046999.4,N
1615329855.5,286047001.2,N
1615329875.3,286046999.2,N
1615329895.2,286047000.6,N
1615329915.9,286047000.9,N
1615329935.7,286047001.1,N
1615329955.6,286046996.3,N
1615329975.4,286046991.3,Y
1615329995.2,286046992.9,P
1615330015.1,286046990.8,P
1615330016.0,286046990.8,N
1615330035.8,286046984.1,Y
1615330055.7,286046986.9,P
1615330075.5,286046985.9,P
1615330095.3,286046981.1,P
1615330115.2,286046974.2,Y
1615330135.0,286046981.5,P
1615330135.9,286046981.5,P
1615330155.8,286046974.9,P
1615330175.6,286046969.9,Y
1615330195.4,286046991.2,P
1615330215.3,286046985.7,N
1615330235.1,286046984.8,P
1615330255.8,286046994.6,N
1615330275.7,286046994.9,N
1615330295.5,286046996.3,N
1615330315.4,286047000.9,N
1615330335.2,286047007.1,N
1615330355.0,286047010.5,N
1615330355.9,286047010.5,N
1615330375.8,286047011.7,N
1615330395.6,286047014.7,N
1615330415.4,286047017.9,N
1615330435.3,286047019.3,N
1615330455.1,286047017.6,N
1615330475.9,286047015.8,N
1615330495.7,286047022.0,N
1615330515.5,286047019.6,N
1615330535.4,286047015.7,N
1615330555.2,286047020.0,N
1615330575.0,286047009.9,N
1615330576.0,286047009.9,N
1615330595.8,286047005.3,N
1615330615.6,286047004.1,N
1615330635.5,286047011.9,N
1615330655.3,286047011.3,N
1615330675.2,286047017.8,N
1615330695.0,286047015.4,N
1615330695.9,286047015.4,N
1615330715.8,286047019.3,N
1615330735.6,286047023.1,N
1615330755.4,286047024.3,N
1615330775.3,286047022.5,N
1615330795.1,286047024.4,Y
